{"data":{"norad_id":55630,"intl_designator":"2023-021C","name":"STARLINK-5303","alt_names":[],"object_type":"PAYLOAD","status":"ACTIVE","operator":null,"country":"US","launch_date":"2023-02-17","launch_site_code":"AFWTR","launch_vehicle":null,"mission":null,"orbit_class":"UNKNOWN","rcs_meters":null,"size_class":null,"mass_kg":null,"dimensions":null,"purposes":["comms"],"wikipedia_slug":null,"has_3d_model":false,"image_url":null,"decayed_at":null,"tle_current":{"epoch":"2026-09-20T22:00:03.000096Z","epoch_age_seconds":67148,"freshness":"FRESH","line1":"1 55630U 23021C   26263.91670139  .00084030  00000+0  59573-2 0  9997","line2":"2 55630  70.0013  72.2391 0004191 272.2559 353.4092 15.04293709  5712","mean_motion":15.04293709,"eccentricity":0.0004191,"inclination_deg":70.0013,"raan_deg":72.2391,"arg_perigee_deg":272.2559,"mean_anomaly_deg":353.4092,"bstar":0.0059573,"rev_number":571,"period_min":95.725986978784,"perigee_km":550.76944548469,"apogee_km":556.57968994075,"semimajor_km":6931.8115677127,"source":"CELESTRAK","updated_at":"2026-09-21T09:00:33.279232Z"}}}